QPF
0.00 0.00 0.00 0.00 0.00 0.00 0.00 0.00 0.00 0.00 0.00 0.00 0.00 0.00 0.00 0.00 0.00 0.00 0.00 0.00 0.00 0.00 0.00 0.00 0.00 0.00 0.00 0.00 0.00 0.01 0.02 0.02 0.04 0.06 0.10 0.15 0.19 0.24 0.26 0.26 0.25 0.23 0.22 0.22
0.00 0.00 0.00 0.00 0.00 0.00 0.00 0.00 0.00 0.00 0.00 0.00 0.00 0.00 0.00 0.00 0.00 0.00 0.00 0.00 0.00 0.00 0.00 0.00 0.00 0.00 0.00 0.01 0.02 0.03 0.04 0.08 0.14 0.21 0.30 0.40 0.49 0.55 0.53 0.48 0.42 0.39 0.37 0.33
0.00 0.00 0.00 0.00 0.00 0.00 0.00 0.00 0.00 0.00 0.00 0.00 0.00 0.00 0.00 0.00 0.00 0.00 0.00 0.00 0.00 0.00 0.00 0.00 0.00 0.00 0.00 0.01 0.03 0.06 0.09 0.18 0.28 0.42 0.57 0.63 0.69 0.73 0.71 0.65 0.59 0.56 0.52 0.47
0.00 0.00 0.00 0.00 0.00 0.00 0.00 0.00 0.00 0.00 0.00 0.00 0.00 0.00 0.00 0.00 0.00 0.00 0.00 0.00 0.00 0.00 0.00 0.00 0.00 0.00 0.00 0.01 0.04 0.07 0.13 0.28 0.41 0.58 0.77 0.89 0.96 0.96 0.84 0.74 0.67 0.62 0.58 0.52
0.00 0.00 0.00 0.00 0.00 0.00 0.00 0.00 0.00 0.00 0.00 0.00 0.00 0.00 0.00 0.00 0.00 0.00 0.00 0.00 0.00 0.00 0.00 0.00 0.00 0.00 0.00 0.02 0.06 0.11 0.23 0.40 0.58 0.85 1.07 1.12 1.02 0.83 0.68 0.59 0.53 0.53 0.53 0.46
0.00 0.00 0.00 0.00 0.00 0.00 0.00 0.00 0.00 0.00 0.00 0.00 0.00 0.00 0.00 0.00 0.00 0.00 0.00 0.00 0.00 0.00 0.00 0.00 0.00 0.01 0.02 0.05 0.11 0.21 0.33 0.52 0.74 0.97 1.06 0.89 0.67 0.56 0.48 0.43 0.40 0.39 0.35 0.28
0.00 0.00 0.00 0.00 0.00 0.00 0.00 0.00 0.00 0.00 0.00 0.00 0.00 0.00 0.00 0.00 0.00 0.00 0.00 0.00 0.00 0.00 0.00 0.00 0.01 0.02 0.06 0.13 0.21 0.31 0.45 0.61 0.73 0.81 0.79 0.63 0.45 0.36 0.33 0.30 0.26 0.22 0.16 0.11
0.00 0.00 0.00 0.00 0.00 0.00 0.00 0.00 0.00 0.00 0.00 0.00 0.00 0.00 0.00 0.00 0.00 0.00 0.00 0.01 0.01 0.01 0.01 0.02 0.03 0.06 0.14 0.22 0.29 0.36 0.46 0.54 0.53 0.46 0.38 0.29 0.23 0.21 0.19 0.18 0.14 0.10 0.08 0.06
0.00 0.00 0.00 0.00 0.00 0.00 0.00 0.00 0.00 0.00 0.00 0.00 0.00 0.00 0.00 0.00 0.01 0.01 0.01 0.01 0.01 0.02 0.02 0.03 0.04 0.08 0.13 0.19 0.23 0.26 0.28 0.28 0.25 0.21 0.18 0.15 0.14 0.13 0.11 0.09 0.06 0.05 0.04 0.03
0.00 0.00 0.00 0.00 0.00 0.00 0.00 0.00 0.00 0.00 0.00 0.00 0.00 0.00 0.00 0.00 0.01 0.01 0.01 0.01 0.02 0.03 0.03 0.04 0.05 0.06 0.08 0.10 0.12 0.15 0.13 0.13 0.13 0.12 0.11 0.08 0.07 0.06 0.05 0.04 0.04 0.03 0.02 0.02
0.00 0.00 0.00 0.00 0.00 0.00 0.00 0.00 0.00 0.00 0.00 0.00 0.00 0.00 0.00 0.00 0.01 0.01 0.01 0.01 0.02 0.02 0.03 0.04 0.04 0.04 0.05 0.05 0.05 0.06 0.07 0.06 0.05 0.05 0.04 0.03 0.03 0.03 0.02 0.02 0.02 0.02 0.01 0.01
0.00 0.00 0.00 0.00 0.00 0.00 0.00 0.00 0.00 0.00 0.00 0.00 0.00 0.00 0.00 0.00 0.01 0.01 0.01 0.02 0.02 0.02 0.02 0.02 0.02 0.02 0.02 0.02 0.03 0.03 0.03 0.02 0.02 0.02 0.01 0.01 0.01 0.01 0.01 0.01 0.01 0.01 0.00 0.00
0.00 0.00 0.00 0.00 0.00 0.00 0.00 0.00 0.00 0.00 0.00 0.00 0.00 0.00 0.01 0.01 0.01 0.01 0.01 0.01 0.02 0.02 0.02 0.02 0.02 0.02 0.02 0.01 0.01 0.01 0.01 0.01 0.00 0.00 0.00 0.00 0.01 0.01 0.01 0.01 0.01 0.00 0.00 0.00
0.00 0.00 0.00 0.00 0.00 0.00 0.00 0.00 0.00 0.00 0.00 0.00 0.00 0.01 0.02 0.02 0.01 0.02 0.02 0.02 0.02 0.01 0.01 0.01 0.01 0.01 0.01 0.01 0.01 0.00 0.00 0.00 0.00 0.00 0.00 0.00 0.01 0.01 0.01 0.01 0.01 0.01 0.00 0.00
0.00 0.00 0.00 0.00 0.00 0.00 0.00 0.00 0.00 0.00 0.00 0.00 0.01 0.02 0.02 0.03 0.02 0.02 0.02 0.02 0.02 0.01 0.01 0.01 0.01 0.00 0.00 0.00 0.00 0.00 0.00 0.00 0.00 0.01 0.01 0.01 0.01 0.01 0.02 0.02 0.01 0.01 0.01 0.00
0.00 0.00 0.00 0.01 0.01 0.01 0.00 0.00 0.00 0.00 0.00 0.01 0.01 0.02 0.04 0.04 0.05 0.05 0.04 0.03 0.02 0.01 0.01 0.01 0.01 0.00 0.00 0.00 0.00 0.00 0.00 0.01 0.01 0.02 0.02 0.03 0.03 0.03 0.03 0.02 0.01 0.01 0.00 0.00
0.00 0.00 0.00 0.00 0.01 0.01 0.01 0.01 0.01 0.01 0.01 0.02 0.02 0.02 0.04 0.06 0.07 0.08 0.07 0.04 0.03 0.02 0.01 0.01 0.01 0.00 0.00 0.00 0.00 0.01 0.01 0.02 0.03 0.04 0.04 0.05 0.04 0.04 0.03 0.01 0.01 0.00 0.00 0.00
0.01 0.00 0.00 0.00 0.00 0.01 0.01 0.01 0.01 0.01 0.02 0.03 0.04 0.04 0.06 0.07 0.07 0.07 0.06 0.05 0.03 0.02 0.01 0.01 0.00 0.00 0.00 0.00 0.01 0.01 0.02 0.03 0.04 0.05 0.05 0.04 0.03 0.02 0.01 0.00 0.00 0.00 0.00 0.00
0.01 0.01 0.01 0.01 0.01 0.01 0.00 0.00 0.01 0.01 0.01 0.02 0.03 0.04 0.05 0.05 0.05 0.04 0.04 0.03 0.02 0.01 0.01 0.00 0.00 0.00 0.00 0.01 0.01 0.02 0.03 0.03 0.03 0.03 0.02 0.01 0.01 0.00 0.00 0.00 0.00 0.00 0.00 0.00
0.01 0.02 0.02 0.01 0.01 0.01 0.01 0.00 0.01 0.01 0.01 0.02 0.03 0.03 0.03 0.03 0.03 0.02 0.02 0.02 0.01 0.01 0.01 0.00 0.00 0.01 0.01 0.01 0.01 0.02 0.02 0.02 0.02 0.01 0.01 0.00 0.00 0.00 0.00 0.00 0.00 0.00 0.00 0.00
0.01 0.01 0.01 0.01 0.01 0.01 0.01 0.01 0.01 0.01 0.01 0.02 0.03 0.02 0.01 0.01 0.01 0.01 0.01 0.01 0.00 0.00 0.00 0.00 0.01 0.01 0.01 0.01 0.01 0.02 0.02 0.02 0.01 0.01 0.00 0.00 0.00 0.00 0.00 0.00 0.00 0.00 0.00 0.00
0.02 0.01 0.02 0.02 0.02 0.02 0.01 0.01 0.02 0.02 0.02 0.02 0.01 0.01 0.00 0.00 0.00 0.00 0.00 0.00 0.00 0.00 0.00 0.00 0.00 0.01 0.01 0.01 0.01 0.01 0.01 0.01 0.01 0.00 0.00 0.00 0.00 0.00 0.00 0.00 0.00 0.00 0.00 0.00
0.01 0.01 0.01 0.01 0.02 0.01 0.01 0.01 0.01 0.01 0.01 0.01 0.01 0.00 0.00 0.00 0.00 0.00 0.00 0.00 0.00 0.00 0.00 0.00 0.01 0.01 0.01 0.00 0.00 0.00 0.00 0.00 0.00 0.00 0.00 0.00 0.00 0.00 0.00 0.00 0.00 0.00 0.00 0.00
0.00 0.00 0.00 0.01 0.01 0.01 0.01 0.01 0.01 0.00 0.00 0.00 0.00 0.00 0.00 0.00 0.00 0.00 0.00 0.00 0.00 0.00 0.00 0.00 0.01 0.00 0.01 0.00 0.00 0.00 0.00 0.00 0.00 0.00 0.00 0.00 0.00 0.00 0.00 0.00 0.00 0.00 0.00 0.00
0.00 0.00 0.00 0.00 0.00 0.01 0.01 0.01 0.01 0.00 0.00 0.00 0.00 0.00 0.00 0.00 0.00 0.00 0.00 0.00 0.00 0.00 0.00 0.00 0.00 0.00 0.00 0.00 0.00 0.00 0.00 0.00 0.00 0.00 0.00 0.00 0.00 0.00 0.00 0.00 0.00 0.00 0.00 0.00
0.00 0.00 0.00 0.00 0.00 0.00 0.00 0.00 0.00 0.01 0.01 0.00 0.00 0.00 0.00 0.01 0.01 0.01 0.01 0.01 0.01 0.00 0.00 0.00 0.00 0.00 0.00 0.00 0.00 0.00 0.00 0.00 0.00 0.00 0.00 0.00 0.00 0.00 0.00 0.00 0.00 0.00 0.00 0.00
MSLP
1012.04 1012.78 1013.32 1013.65 1013.80 1013.82 1013.75 1013.63 1013.50 1013.33 1013.13 1012.86 1012.49 1012.02 1011.45 1010.80 1010.12 1009.45 1008.83 1008.29 1007.85 1007.51 1007.28 1007.15 1007.12 1007.20 1007.41 1007.76 1008.27 1008.92 1009.71 1010.60 1011.54 1012.46 1013.33 1014.09 1014.73 1015.23 1015.61 1015.91 1016.15 1016.39 1016.66 1016.95
1012.30 1012.93 1013.37 1013.62 1013.74 1013.78 1013.79 1013.81 1013.83 1013.83 1013.75 1013.56 1013.21 1012.68 1012.00 1011.19 1010.34 1009.49 1008.71 1008.05 1007.53 1007.16 1006.93 1006.83 1006.84 1006.98 1007.24 1007.65 1008.21 1008.93 1009.79 1010.76 1011.79 1012.81 1013.75 1014.58 1015.26 1015.78 1016.16 1016.44 1016.66 1016.87 1017.09 1017.35
1012.30 1012.84 1013.18 1013.39 1013.50 1013.61 1013.74 1013.92 1014.12 1014.29 1014.35 1014.23 1013.89 1013.31 1012.52 1011.57 1010.55 1009.55 1008.65 1007.91 1007.34 1006.96 1006.76 1006.71 1006.78 1006.97 1007.28 1007.73 1008.32 1009.07 1009.97 1010.97 1012.04 1013.10 1014.09 1014.96 1015.68 1016.22 1016.61 1016.88 1017.09 1017.29 1017.50 1017.75
1012.05 1012.49 1012.76 1012.94 1013.09 1013.29 1013.58 1013.94 1014.33 1014.67 1014.87 1014.84 1014.52 1013.91 1013.03 1011.97 1010.83 1009.72 1008.74 1007.94 1007.36 1007.01 1006.85 1006.85 1006.98 1007.22 1007.56 1008.02 1008.61 1009.35 1010.22 1011.21 1012.26 1013.31 1014.31 1015.19 1015.92 1016.49 1016.90 1017.19 1017.42 1017.63 1017.85 1018.11
1011.59 1011.94 1012.15 1012.32 1012.53 1012.85 1013.30 1013.85 1014.44 1014.96 1015.30 1015.36 1015.08 1014.46 1013.54 1012.41 1011.20 1010.03 1009.01 1008.21 1007.66 1007.35 1007.25 1007.32 1007.50 1007.77 1008.12 1008.55 1009.10 1009.76 1010.56 1011.47 1012.46 1013.46 1014.42 1015.29 1016.02 1016.60 1017.04 1017.38 1017.64 1017.89 1018.14 1018.43
1011.04 1011.28 1011.44 1011.61 1011.89 1012.32 1012.93 1013.67 1014.45 1015.14 1015.61 1015.77 1015.55 1014.95 1014.03 1012.88 1011.66 1010.49 1009.49 1008.73 1008.24 1008.00 1007.97 1008.10 1008.32 1008.61 1008.93 1009.32 1009.78 1010.34 1011.02 1011.80 1012.67 1013.58 1014.48 1015.31 1016.03 1016.63 1017.11 1017.49 1017.81 1018.11 1018.41 1018.74
1010.51 1010.63 1010.73 1010.90 1011.24 1011.78 1012.53 1013.42 1014.35 1015.18 1015.77 1016.02 1015.87 1015.32 1014.44 1013.34 1012.16 1011.05 1010.13 1009.45 1009.05 1008.91 1008.96 1009.16 1009.41 1009.70 1009.99 1010.30 1010.65 1011.07 1011.60 1012.24 1012.98 1013.77 1014.58 1015.35 1016.06 1016.67 1017.18 1017.62 1017.99 1018.35 1018.70 1019.06
1010.09 1010.10 1010.13 1010.29 1010.67 1011.28 1012.13 1013.13 1014.16 1015.09 1015.76 1016.09 1016.00 1015.52 1014.72 1013.70 1012.63 1011.64 1010.84 1010.29 1010.02 1009.99 1010.14 1010.40 1010.69 1010.97 1011.22 1011.44 1011.68 1011.97 1012.35 1012.83 1013.42 1014.09 1014.80 1015.51 1016.19 1016.81 1017.35 1017.83 1018.26 1018.66 1019.04 1019.43
1009.87 1009.76 1009.73 1009.87 1010.25 1010.90 1011.78 1012.83 1013.90 1014.86 1015.58 1015.94 1015.91 1015.51 1014.81 1013.92 1013.00 1012.17 1011.53 1011.15 1011.03 1011.13 1011.38 1011.71 1012.04 1012.32 1012.53 1012.69 1012.83 1013.00 1013.24 1013.59 1014.04 1014.59 1015.21 1015.87 1016.51 1017.12 1017.68 1018.19 1018.65 1019.07 1019.48 1019.88
1009.87 1009.66 1009.56 1009.67 1010.03 1010.67 1011.54 1012.56 1013.61 1014.54 1015.23 1015.60 1015.61 1015.28 1014.69 1013.95 1013.21 1012.57 1012.13 1011.93 1011.98 1012.22 1012.59 1012.99 1013.37 1013.66 1013.86 1013.97 1014.04 1014.12 1014.26 1014.49 1014.84 1015.29 1015.83 1016.43 1017.04 1017.64 1018.20 1018.71 1019.18 1019.61 1020.02 1020.40
1010.06 1009.78 1009.64 1009.71 1010.04 1010.62 1011.43 1012.36 1013.31 1014.15 1014.77 1015.10 1015.12 1014.86 1014.39 1013.81 1013.25 1012.82 1012.59 1012.58 1012.80 1013.19 1013.67 1014.15 1014.58 1014.90 1015.10 1015.20 1015.23 1015.26 1015.33 1015.50 1015.77 1016.15 1016.63 1017.18 1017.75 1018.32 1018.87 1019.38 1019.83 1020.25 1020.62 1020.97
1010.40 1010.10 1009.94 1009.98 1010.26 1010.77 1011.46 1012.26 1013.06 1013.76 1014.27 1014.53 1014.54 1014.32 1013.96 1013.54 1013.18 1012.95 1012.92 1013.11 1013.49 1014.01 1014.59 1015.15 1015.63 1015.99 1016.21 1016.31 1016.35 1016.36 1016.40 1016.53 1016.76 1017.09 1017.52 1018.03 1018.56 1019.11 1019.63 1020.11 1020.54 1020.92 1021.26 1021.55
1010.84 1010.56 1010.41 1010.44 1010.67 1011.08 1011.64 1012.27 1012.90 1013.43 1013.80 1013.98 1013.96 1013.78 1013.52 1013.25 1013.07 1013.04 1013.20 1013.56 1014.08 1014.71 1015.37 1015.99 1016.52 1016.91 1017.16 1017.28 1017.33 1017.35 1017.40 1017.51 1017.72 1018.03 1018.42 1018.89 1019.39 1019.89 1020.38 1020.83 1021.23 1021.58 1021.88 1022.13
1011.35 1011.12 1011.00 1011.03 1011.21 1011.53 1011.95 1012.41 1012.85 1013.21 1013.44 1013.52 1013.47 1013.34 1013.17 1013.04 1013.03 1013.17 1013.49 1013.99 1014.62 1015.33 1016.05 1016.71 1017.26 1017.67 1017.94 1018.10 1018.17 1018.22 1018.28 1018.40 1018.60 1018.88 1019.25 1019.68 1020.14 1020.62 1021.07 1021.49 1021.86 1022.18 1022.44 1022.66
1011.92 1011.76 1011.68 1011.71 1011.85 1012.08 1012.36 1012.66 1012.92 1013.12 1013.22 1013.23 1013.16 1013.07 1012.99 1013.00 1013.13 1013.42 1013.88 1014.48 1015.18 1015.94 1016.67 1017.34 1017.89 1018.31 1018.59 1018.77 1018.87 1018.94 1019.02 1019.15 1019.35 1019.62 1019.96 1020.36 1020.79 1021.23 1021.65 1022.04 1022.39 1022.69 1022.93 1023.12
1012.56 1012.46 1012.43 1012.45 1012.54 1012.68 1012.84 1012.99 1013.10 1013.16 1013.16 1013.12 1013.06 1013.02 1013.04 1013.16 1013.43 1013.84 1014.39 1015.07 1015.81 1016.57 1017.29 1017.93 1018.46 1018.86 1019.14 1019.32 1019.44 1019.53 1019.63 1019.78 1019.98 1020.24 1020.56 1020.92 1021.32 1021.72 1022.11 1022.48 1022.82 1023.10 1023.34 1023.52
1013.28 1013.22 1013.20 1013.20 1013.24 1013.28 1013.33 1013.35 1013.35 1013.31 1013.26 1013.20 1013.16 1013.19 1013.31 1013.55 1013.92 1014.43 1015.05 1015.76 1016.51 1017.24 1017.92 1018.52 1019.00 1019.37 1019.63 1019.81 1019.93 1020.04 1020.16 1020.31 1020.51 1020.76 1021.06 1021.40 1021.76 1022.14 1022.50 1022.85 1023.17 1023.45 1023.69 1023.87
1014.08 1014.02 1013.97 1013.93 1013.89 1013.85 1013.79 1013.72 1013.63 1013.54 1013.46 1013.42 1013.43 1013.54 1013.76 1014.11 1014.58 1015.16 1015.83 1016.54 1017.26 1017.95 1018.57 1019.10 1019.52 1019.84 1020.08 1020.25 1020.38 1020.50 1020.63 1020.79 1020.99 1021.24 1021.52 1021.84 1022.17 1022.51 1022.86 1023.19 1023.49 1023.76 1023.99 1024.16
1014.92 1014.81 1014.70 1014.59 1014.46 1014.33 1014.19 1014.04 1013.91 1013.79 1013.73 1013.73 1013.82 1014.02 1014.34 1014.78 1015.33 1015.96 1016.65 1017.35 1018.03 1018.66 1019.21 1019.67 1020.03 1020.31 1020.51 1020.67 1020.80 1020.94 1021.08 1021.26 1021.47 1021.71 1021.99 1022.28 1022.59 1022.91 1023.23 1023.53 1023.82 1024.07 1024.28 1024.43
1015.74 1015.55 1015.35 1015.14 1014.93 1014.71 1014.50 1014.31 1014.15 1014.05 1014.02 1014.09 1014.26 1014.56 1014.97 1015.49 1016.11 1016.77 1017.46 1018.14 1018.77 1019.34 1019.82 1020.21 1020.51 1020.75 1020.93 1021.08 1021.22 1021.37 1021.54 1021.73 1021.95 1022.20 1022.47 1022.75 1023.04 1023.33 1023.62 1023.90 1024.15 1024.37 1024.55 1024.67
1016.47 1016.18 1015.88 1015.57 1015.27 1014.99 1014.73 1014.52 1014.37 1014.30 1014.32 1014.46 1014.72 1015.10 1015.60 1016.19 1016.84 1017.53 1018.21 1018.86 1019.44 1019.95 1020.37 1020.70 1020.95 1021.16 1021.32 1021.47 1021.62 1021.79 1021.98 1022.20 1022.43 1022.69 1022.96 1023.23 1023.50 1023.77 1024.03 1024.27 1024.49 1024.67 1024.80 1024.88
1017.04 1016.66 1016.26 1015.87 1015.51 1015.18 1014.90 1014.69 1014.56 1014.54 1014.63 1014.84 1015.18 1015.64 1016.19 1016.83 1017.51 1018.19 1018.86 1019.47 1020.02 1020.47 1020.84 1021.12 1021.35 1021.53 1021.68 1021.83 1021.99 1022.18 1022.39 1022.62 1022.88 1023.14 1023.41 1023.68 1023.94 1024.18 1024.41 1024.61 1024.79 1024.92 1025.00 1025.03
1017.41 1016.95 1016.49 1016.05 1015.65 1015.31 1015.04 1014.86 1014.78 1014.81 1014.96 1015.24 1015.64 1016.15 1016.74 1017.40 1018.09 1018.76 1019.41 1019.99 1020.49 1020.91 1021.23 1021.49 1021.68 1021.84 1021.99 1022.14 1022.31 1022.50 1022.72 1022.97 1023.23 1023.50 1023.77 1024.03 1024.28 1024.51 1024.71 1024.88 1025.01 1025.10 1025.13 1025.11
1017.58 1017.08 1016.59 1016.14 1015.75 1015.43 1015.20 1015.06 1015.04 1015.13 1015.34 1015.67 1016.11 1016.65 1017.26 1017.91 1018.59 1019.24 1019.86 1020.41 1020.87 1021.26 1021.56 1021.79 1021.96 1022.11 1022.24 1022.39 1022.55 1022.74 1022.96 1023.20 1023.46 1023.73 1024.00 1024.25 1024.49 1024.70 1024.88 1025.02 1025.12 1025.17 1025.17 1025.11
1017.57 1017.08 1016.61 1016.20 1015.85 1015.59 1015.42 1015.35 1015.39 1015.54 1015.79 1016.15 1016.61 1017.14 1017.74 1018.38 1019.02 1019.65 1020.23 1020.75 1021.19 1021.55 1021.83 1022.03 1022.19 1022.32 1022.44 1022.57 1022.71 1022.88 1023.08 1023.31 1023.55 1023.81 1024.06 1024.31 1024.53 1024.73 1024.90 1025.02 1025.10 1025.13 1025.10 1025.01
1017.46 1017.01 1016.61 1016.27 1016.00 1015.82 1015.74 1015.74 1015.84 1016.03 1016.31 1016.68 1017.13 1017.65 1018.21 1018.81 1019.42 1020.00 1020.55 1021.04 1021.45 1021.79 1022.06 1022.25 1022.40 1022.51 1022.60 1022.70 1022.81 1022.94 1023.11 1023.30 1023.51 1023.74 1023.98 1024.21 1024.43 1024.62 1024.77 1024.89 1024.96 1024.98 1024.94 1024.84
Thickness
5696 5686 5684 5692 5701 5707 5711 5711 5712 5721 5736 5737 5737 5741 5758 5769 5770 5771 5773 5776 5781 5790 5802 5801 5799 5796 5791 5786 5781 5775 5768 5761 5753 5744 5735 5726 5716 5707 5700 5694 5688 5685 5683 5681
5680 5680 5693 5700 5700 5703 5703 5703 5706 5718 5731 5733 5731 5735 5753 5766 5769 5772 5773 5775 5780 5786 5791 5794 5795 5792 5789 5785 5779 5772 5765 5757 5749 5742 5732 5721 5708 5699 5691 5686 5680 5675 5673 5670
5676 5689 5699 5695 5694 5693 5694 5696 5703 5708 5715 5721 5722 5721 5739 5761 5766 5769 5771 5773 5776 5781 5785 5789 5789 5788 5786 5781 5776 5768 5760 5751 5743 5734 5722 5710 5698 5690 5681 5674 5669 5665 5663 5662
5675 5690 5694 5690 5691 5691 5685 5701 5703 5703 5696 5688 5704 5687 5720 5741 5747 5758 5762 5762 5766 5773 5779 5782 5782 5781 5779 5776 5770 5761 5752 5743 5734 5725 5714 5705 5694 5683 5674 5667 5662 5657 5654 5652
5674 5687 5687 5686 5692 5693 5694 5703 5699 5697 5690 5682 5688 5682 5701 5725 5735 5746 5750 5754 5758 5764 5769 5772 5774 5773 5770 5766 5759 5751 5742 5732 5722 5713 5705 5694 5685 5676 5666 5657 5653 5648 5643 5640
5680 5692 5692 5693 5701 5699 5698 5692 5682 5671 5668 5665 5682 5675 5688 5707 5721 5730 5739 5744 5749 5754 5759 5760 5761 5760 5756 5752 5747 5739 5731 5721 5712 5704 5694 5685 5676 5666 5657 5649 5644 5639 5633 5629
5672 5683 5693 5698 5693 5694 5687 5667 5648 5654 5645 5656 5685 5681 5685 5709 5718 5723 5728 5732 5737 5742 5745 5746 5745 5744 5740 5736 5731 5725 5719 5710 5701 5692 5683 5673 5664 5657 5650 5642 5636 5631 5626 5622
5652 5658 5683 5692 5689 5681 5676 5668 5649 5644 5647 5659 5678 5675 5688 5707 5715 5720 5722 5724 5727 5729 5730 5729 5728 5726 5723 5719 5715 5710 5704 5696 5688 5679 5671 5663 5655 5647 5640 5632 5627 5622 5618 5612
5649 5656 5686 5695 5701 5693 5676 5669 5679 5659 5656 5655 5662 5676 5689 5701 5706 5709 5711 5712 5713 5713 5713 5711 5709 5707 5704 5702 5698 5693 5688 5681 5674 5666 5658 5650 5643 5637 5630 5622 5617 5611 5605 5600
5662 5658 5680 5695 5698 5695 5692 5679 5658 5650 5640 5643 5661 5669 5669 5683 5691 5697 5699 5700 5700 5699 5698 5695 5693 5690 5687 5684 5680 5675 5671 5664 5658 5652 5646 5637 5630 5624 5618 5611 5604 5598 5592 5587
5666 5658 5669 5680 5682 5682 5678 5673 5664 5651 5654 5646 5643 5655 5676 5680 5687 5689 5688 5688 5686 5684 5682 5679 5676 5674 5671 5668 5663 5658 5653 5648 5641 5635 5629 5622 5615 5609 5603 5596 5589 5583 5578 5573
5661 5654 5652 5667 5683 5689 5684 5676 5662 5656 5652 5651 5649 5652 5676 5681 5685 5683 5679 5675 5671 5668 5666 5663 5661 5658 5656 5652 5647 5642 5637 5631 5625 5619 5613 5606 5600 5593 5587 5580 5573 5568 5561 5555
5655 5648 5643 5651 5659 5668 5671 5672 5666 5658 5648 5641 5643 5649 5671 5677 5675 5672 5668 5662 5657 5653 5650 5647 5644 5641 5637 5634 5630 5625 5620 5615 5609 5602 5596 5589 5582 5576 5569 5563 5556 5550 5545 5538
5650 5636 5635 5632 5639 5651 5656 5661 5664 5657 5643 5643 5648 5649 5656 5661 5660 5657 5652 5647 5642 5638 5634 5630 5625 5622 5618 5615 5612 5608 5603 5598 5592 5586 5579 5571 5564 5558 5552 5546 5539 5533 5527 5521
5636 5627 5632 5635 5642 5646 5642 5645 5652 5652 5649 5643 5644 5644 5646 5648 5647 5643 5639 5634 5629 5624 5619 5614 5609 5605 5602 5598 5594 5590 5585 5580 5575 5569 5561 5554 5547 5540 5534 5528 5521 5515 5509 5502
5617 5618 5623 5622 5629 5631 5629 5632 5637 5638 5639 5638 5637 5634 5637 5637 5636 5630 5626 5622 5616 5610 5604 5598 5593 5589 5585 5581 5577 5572 5567 5562 5558 5551 5544 5537 5531 5524 5517 5510 5504 5497 5491 5485
5601 5605 5604 5602 5612 5615 5607 5616 5621 5622 5622 5626 5625 5625 5626 5624 5621 5616 5612 5608 5603 5597 5590 5583 5577 5572 5567 5563 5559 5555 5550 5545 5540 5534 5527 5521 5514 5508 5501 5495 5487 5480 5474 5469
5593 5590 5585 5587 5595 5585 5599 5612 5614 5610 5610 5615 5615 5614 5612 5607 5601 5597 5595 5593 5588 5582 5574 5566 5560 5554 5549 5546 5542 5538 5533 5528 5523 5517 5511 5505 5498 5491 5484 5477 5471 5464 5459 5454
5583 5582 5576 5573 5577 5582 5592 5601 5601 5597 5595 5600 5600 5598 5596 5593 5590 5582 5577 5575 5570 5563 5557 5550 5544 5539 5534 5530 5526 5522 5516 5511 5506 5500 5494 5488 5481 5474 5468 5461 5455 5449 5444 5440
5572 5571 5566 5565 5568 5567 5581 5592 5596 5591 5582 5590 5588 5586 5583 5582 5578 5569 5561 5558 5552 5546 5540 5534 5529 5524 5519 5514 5510 5505 5500 5494 5489 5483 5477 5471 5465 5458 5452 5446 5440 5435 5430 5426
5557 5556 5554 5555 5558 5564 5574 5580 5584 5573 5574 5581 5578 5575 5572 5567 5560 5552 5546 5540 5535 5530 5524 5520 5515 5509 5504 5499 5495 5489 5483 5477 5472 5467 5461 5455 5448 5442 5436 5431 5425 5421 5417 5413
5548 5547 5547 5546 5549 5553 5564 5570 5567 5565 5569 5571 5568 5563 5557 5549 5542 5537 5531 5526 5521 5515 5511 5506 5501 5495 5490 5486 5481 5474 5468 5462 5457 5452 5446 5440 5434 5429 5423 5418 5412 5408 5404 5400
5543 5544 5542 5544 5544 5549 5550 5553 5555 5557 5559 5559 5555 5550 5544 5538 5531 5525 5519 5513 5508 5503 5498 5493 5488 5482 5477 5472 5467 5461 5455 5450 5444 5439 5432 5427 5421 5416 5411 5406 5401 5397 5392 5388
5542 5544 5540 5542 5546 5547 5547 5547 5548 5548 5548 5546 5544 5538 5533 5528 5521 5514 5507 5500 5496 5491 5486 5481 5476 5470 5464 5460 5456 5451 5446 5440 5434 5427 5420 5415 5410 5405 5400 5395 5391 5387 5383 5380
5538 5540 5539 5540 5544 5544 5544 5539 5539 5538 5537 5535 5532 5528 5523 5517 5510 5503 5496 5490 5485 5480 5474 5469 5464 5459 5454 5450 5446 5442 5437 5431 5423 5417 5411 5405 5400 5395 5390 5386 5382 5380 5376 5373
5530 5534 5534 5534 5537 5535 5533 5531 5531 5529 5526 5524 5521 5516 5511 5507 5501 5494 5487 5481 5476 5470 5465 5460 5455 5451 5446 5442 5437 5433 5428 5422 5415 5408 5402 5397 5392 5387 5383 5379 5376 5374 5371 5369